Location: Pisa
(43.7170°N, 10.3830°E)
Time: 00:31:16
(UTC+02:00)

ISS - Pass Details

Date: 12 May 2021
Orbit: 417 x 422 km, 51.6° (Epoch: 18 June)

Event Time Altitude Azimuth Distance (km) Brightness Sun altitude
Rises 04:24:07 0° 303° (WNW) 2,375 -0.1 -14.5°
Reaches altitude 10° 04:26:19 10° 312° (NW) 1,510 -1.0 -14.2°
Maximum altitude 04:29:29 37° 21° (NNE) 681 -2.1 -13.8°
Drops below altitude 10° 04:32:40 10° 91° (E) 1,507 -0.2 -13.4°
Sets 04:34:52 0° 100° (E) 2,370 0.7 -13.1°
